GEFSCGP_prec_meanprecacc_060.txt.gz
Total_Precipitation_Accumulation
0.11 0.22 0.38 0.40 0.42 0.35 0.22 0.17 0.14 0.12 0.14 0.13 0.13 0.15 0.16 0.16 0.15 0.14 0.13 0.11 0.13 0.12 0.11 0.12 0.14 0.18 0.20 0.21 0.27 0.32 0.38 0.53 0.66 0.75 0.87 1.06 1.22 1.37 1.50 1.62 1.50 1.32 1.24 1.38
0.06 0.13 0.16 0.14 0.16 0.17 0.16 0.16 0.15 0.10 0.10 0.09 0.10 0.11 0.12 0.11 0.10 0.10 0.10 0.10 0.09 0.08 0.07 0.06 0.06 0.09 0.10 0.11 0.15 0.22 0.28 0.39 0.51 0.64 0.86 1.09 1.37 1.43 1.50 1.63 1.69 1.61 1.51 1.61
0.05 0.05 0.03 0.05 0.06 0.08 0.11 0.15 0.15 0.12 0.08 0.06 0.06 0.07 0.08 0.09 0.09 0.07 0.07 0.08 0.09 0.07 0.06 0.04 0.04 0.05 0.07 0.07 0.09 0.15 0.25 0.41 0.61 0.81 1.10 1.38 1.61 1.67 1.69 1.63 1.71 1.79 1.83 1.86
0.00 0.00 0.01 0.02 0.05 0.09 0.14 0.09 0.08 0.09 0.09 0.08 0.09 0.12 0.09 0.11 0.13 0.12 0.11 0.12 0.14 0.12 0.08 0.06 0.06 0.07 0.08 0.10 0.14 0.22 0.36 0.56 0.82 1.14 1.44 1.66 1.89 1.98 1.81 1.79 1.83 1.82 1.77 1.80
0.00 0.00 0.00 0.00 0.02 0.04 0.06 0.05 0.06 0.07 0.08 0.06 0.05 0.08 0.10 0.14 0.21 0.21 0.19 0.19 0.20 0.18 0.14 0.12 0.13 0.14 0.18 0.23 0.29 0.44 0.66 0.95 1.21 1.41 1.58 1.78 1.90 1.90 1.86 1.82 1.81 1.73 1.71 1.66
0.00 0.00 0.00 0.00 0.00 0.01 0.02 0.05 0.07 0.08 0.10 0.07 0.05 0.10 0.18 0.21 0.24 0.23 0.21 0.20 0.18 0.17 0.19 0.20 0.22 0.28 0.35 0.39 0.51 0.68 0.86 1.13 1.27 1.37 1.49 1.66 1.78 1.81 1.82 1.78 1.79 1.77 1.72 1.60
0.00 0.00 0.00 0.00 0.00 0.01 0.02 0.06 0.12 0.13 0.16 0.16 0.13 0.24 0.34 0.31 0.26 0.22 0.21 0.21 0.19 0.22 0.27 0.28 0.36 0.50 0.58 0.63 0.70 0.84 0.92 1.06 1.15 1.18 1.28 1.41 1.47 1.49 1.51 1.48 1.43 1.37 1.31 1.27
0.00 0.00 0.00 0.00 0.00 0.01 0.01 0.05 0.17 0.21 0.23 0.23 0.24 0.45 0.50 0.37 0.30 0.27 0.24 0.21 0.24 0.33 0.42 0.54 0.66 0.76 0.83 0.83 0.80 0.81 0.92 0.97 0.94 0.94 0.96 1.06 1.11 1.14 1.16 1.11 1.09 1.09 1.11 1.11
0.00 0.00 0.00 0.00 0.00 0.01 0.02 0.06 0.11 0.22 0.20 0.22 0.32 0.60 0.61 0.38 0.32 0.28 0.25 0.26 0.32 0.46 0.66 0.88 1.07 1.18 1.25 1.17 0.97 0.83 0.83 0.81 0.78 0.80 0.82 0.85 0.87 0.89 0.87 0.86 0.83 0.87 0.89 0.87
0.02 0.01 0.00 0.00 0.00 0.01 0.05 0.10 0.19 0.35 0.40 0.37 0.44 0.66 0.68 0.51 0.41 0.35 0.36 0.46 0.62 0.82 1.09 1.34 1.58 1.70 1.68 1.48 1.21 0.93 0.78 0.73 0.68 0.69 0.70 0.72 0.73 0.71 0.66 0.64 0.62 0.60 0.62 0.65
0.02 0.04 0.01 0.01 0.03 0.05 0.11 0.19 0.27 0.41 0.48 0.58 0.68 0.84 0.74 0.69 0.64 0.61 0.68 0.86 1.07 1.34 1.52 1.66 1.81 1.86 1.59 1.41 1.17 0.91 0.76 0.77 0.77 0.75 0.72 0.69 0.65 0.60 0.55 0.52 0.50 0.47 0.47 0.48
0.03 0.06 0.06 0.03 0.07 0.12 0.24 0.38 0.52 0.74 0.71 0.68 0.85 0.96 0.76 0.71 0.79 0.83 0.94 1.00 1.10 1.25 1.27 1.35 1.41 1.36 1.32 1.27 1.10 0.94 0.85 0.84 0.87 0.85 0.83 0.73 0.63 0.57 0.56 0.54 0.47 0.45 0.40 0.39
0.12 0.19 0.17 0.12 0.23 0.31 0.40 0.44 0.48 0.59 0.67 0.69 0.90 1.02 0.70 0.65 0.70 0.86 1.04 1.09 1.16 1.18 1.10 1.10 1.10 1.11 1.14 1.11 0.99 0.97 0.94 0.94 0.93 0.90 0.81 0.72 0.64 0.55 0.51 0.45 0.41 0.45 0.43 0.44
0.16 0.25 0.27 0.28 0.35 0.42 0.50 0.48 0.41 0.47 0.68 0.74 0.89 0.87 0.71 0.67 0.67 0.79 0.92 1.02 0.97 0.91 0.86 0.87 0.91 0.94 1.03 1.00 0.96 0.91 0.87 0.92 1.00 1.06 0.96 0.85 0.73 0.61 0.55 0.48 0.43 0.40 0.41 0.43
0.07 0.10 0.13 0.13 0.15 0.23 0.43 0.54 0.52 0.48 0.51 0.68 0.71 0.64 0.59 0.54 0.61 0.66 0.69 0.66 0.57 0.54 0.55 0.60 0.64 0.64 0.62 0.59 0.61 0.63 0.69 0.80 0.94 1.08 1.07 0.93 0.74 0.61 0.54 0.49 0.42 0.40 0.39 0.39
0.02 0.02 0.02 0.03 0.06 0.15 0.29 0.40 0.42 0.38 0.36 0.44 0.49 0.49 0.40 0.37 0.43 0.44 0.46 0.42 0.39 0.35 0.33 0.31 0.32 0.33 0.34 0.31 0.28 0.27 0.33 0.48 0.73 0.99 0.97 0.75 0.58 0.46 0.41 0.41 0.39 0.35 0.33 0.36
0.00 0.01 0.02 0.03 0.03 0.10 0.30 0.36 0.34 0.33 0.25 0.25 0.31 0.31 0.27 0.29 0.35 0.35 0.37 0.39 0.29 0.22 0.20 0.20 0.20 0.20 0.20 0.19 0.18 0.19 0.26 0.38 0.54 0.64 0.60 0.51 0.40 0.38 0.41 0.42 0.36 0.34 0.33 0.34
0.00 0.03 0.06 0.06 0.08 0.28 0.57 0.52 0.44 0.40 0.22 0.15 0.15 0.16 0.19 0.28 0.30 0.30 0.29 0.28 0.27 0.17 0.11 0.11 0.12 0.13 0.15 0.16 0.19 0.22 0.27 0.34 0.38 0.40 0.40 0.34 0.30 0.31 0.34 0.35 0.34 0.39 0.44 0.41
0.04 0.11 0.14 0.15 0.19 0.41 0.54 0.49 0.49 0.48 0.33 0.13 0.09 0.10 0.09 0.09 0.10 0.11 0.12 0.10 0.10 0.07 0.04 0.03 0.03 0.03 0.05 0.05 0.06 0.08 0.10 0.12 0.12 0.12 0.13 0.12 0.12 0.13 0.14 0.16 0.22 0.33 0.40 0.41
0.08 0.13 0.19 0.21 0.28 0.42 0.36 0.23 0.25 0.37 0.43 0.12 0.05 0.04 0.02 0.01 0.03 0.05 0.06 0.06 0.02 0.01 0.01 0.00 0.00 0.00 0.00 0.00 0.00 0.00 0.00 0.01 0.01 0.01 0.01 0.01 0.02 0.02 0.03 0.06 0.08 0.15 0.19 0.24
0.05 0.11 0.17 0.24 0.42 0.63 0.45 0.25 0.23 0.39 0.39 0.09 0.03 0.01 0.00 0.00 0.00 0.01 0.04 0.05 0.02 0.00 0.00 0.00 0.00 0.00 0.00 0.00 0.00 0.00 0.00 0.00 0.00 0.00 0.00 0.00 0.00 0.00 0.01 0.02 0.03 0.06 0.08 0.12
0.07 0.11 0.16 0.30 0.59 0.82 0.64 0.41 0.34 0.26 0.11 0.03 0.01 0.00 0.00 0.00 0.00 0.01 0.02 0.03 0.02 0.00 0.00 0.00 0.00 0.00 0.00 0.00 0.00 0.00 0.00 0.00 0.00 0.00 0.00 0.00 0.00 0.00 0.01 0.01 0.02 0.02 0.03 0.06
0.02 0.04 0.08 0.21 0.45 0.52 0.46 0.35 0.24 0.17 0.07 0.01 0.00 0.00 0.00 0.00 0.00 0.00 0.01 0.01 0.01 0.00 0.00 0.00 0.00 0.00 0.00 0.00 0.00 0.00 0.00 0.00 0.00 0.00 0.00 0.00 0.00 0.01 0.01 0.01 0.01 0.02 0.03 0.05
0.00 0.00 0.01 0.03 0.09 0.15 0.18 0.18 0.11 0.08 0.05 0.01 0.00 0.00 0.00 0.00 0.00 0.00 0.01 0.01 0.01 0.00 0.00 0.00 0.00 0.00 0.00 0.00 0.00 0.00 0.00 0.00 0.00 0.00 0.00 0.00 0.01 0.01 0.01 0.02 0.03 0.03 0.04 0.05
0.01 0.01 0.01 0.01 0.01 0.02 0.06 0.08 0.07 0.04 0.02 0.00 0.00 0.00 0.00 0.00 0.00 0.00 0.01 0.01 0.01 0.00 0.00 0.00 0.00 0.00 0.00 0.00 0.00 0.00 0.00 0.00 0.00 0.00 0.00 0.00 0.00 0.01 0.01 0.01 0.01 0.02 0.03 0.04
0.00 0.01 0.01 0.01 0.00 0.01 0.03 0.04 0.03 0.02 0.01 0.00 0.00 0.00 0.00 0.00 0.00 0.00 0.00 0.01 0.00 0.00 0.00 0.00 0.00 0.00 0.00 0.00 0.00 0.00 0.00 0.00 0.00 0.00 0.00 0.00 0.00 0.01 0.01 0.01 0.01 0.01 0.02 0.05

GEFSCGP_prec_meanprecacc_066.txt.gz
Total_Precipitation_Accumulation
0.11 0.22 0.38 0.40 0.42 0.35 0.22 0.17 0.14 0.13 0.14 0.13 0.13 0.15 0.16 0.16 0.15 0.14 0.13 0.11 0.13 0.12 0.11 0.12 0.14 0.18 0.20 0.21 0.27 0.32 0.38 0.53 0.67 0.75 0.87 1.06 1.23 1.38 1.52 1.64 1.53 1.37 1.31 1.46
0.07 0.14 0.16 0.14 0.16 0.17 0.16 0.16 0.15 0.11 0.10 0.09 0.10 0.11 0.12 0.11 0.10 0.10 0.10 0.10 0.09 0.08 0.07 0.06 0.06 0.09 0.10 0.11 0.15 0.22 0.28 0.40 0.52 0.65 0.87 1.10 1.38 1.44 1.51 1.65 1.71 1.64 1.57 1.69
0.05 0.06 0.04 0.05 0.06 0.08 0.11 0.15 0.15 0.12 0.08 0.06 0.06 0.07 0.08 0.09 0.09 0.07 0.07 0.08 0.09 0.07 0.06 0.04 0.04 0.05 0.07 0.07 0.09 0.16 0.26 0.41 0.62 0.84 1.12 1.41 1.63 1.69 1.71 1.64 1.73 1.81 1.86 1.91
0.00 0.00 0.01 0.02 0.05 0.09 0.14 0.09 0.08 0.09 0.09 0.08 0.09 0.12 0.09 0.11 0.13 0.12 0.11 0.12 0.14 0.12 0.08 0.06 0.06 0.07 0.08 0.10 0.14 0.23 0.37 0.58 0.84 1.18 1.49 1.71 1.93 2.00 1.83 1.81 1.85 1.85 1.80 1.84
0.00 0.00 0.00 0.00 0.02 0.04 0.06 0.05 0.06 0.07 0.08 0.06 0.05 0.09 0.10 0.14 0.21 0.22 0.19 0.19 0.20 0.18 0.14 0.12 0.13 0.15 0.18 0.24 0.31 0.45 0.68 0.96 1.24 1.45 1.63 1.84 1.95 1.93 1.89 1.85 1.85 1.77 1.74 1.72
0.00 0.00 0.00 0.00 0.00 0.01 0.02 0.05 0.07 0.08 0.10 0.07 0.05 0.11 0.18 0.21 0.24 0.23 0.21 0.20 0.18 0.17 0.19 0.20 0.22 0.29 0.36 0.40 0.53 0.71 0.88 1.16 1.32 1.42 1.55 1.72 1.85 1.88 1.88 1.84 1.85 1.83 1.78 1.68
0.00 0.00 0.00 0.00 0.00 0.01 0.02 0.06 0.12 0.13 0.17 0.16 0.13 0.24 0.34 0.31 0.26 0.22 0.21 0.21 0.19 0.22 0.27 0.28 0.38 0.52 0.60 0.64 0.72 0.86 0.94 1.10 1.19 1.23 1.31 1.46 1.52 1.55 1.58 1.56 1.51 1.45 1.39 1.37
0.00 0.00 0.00 0.00 0.00 0.01 0.01 0.05 0.17 0.21 0.23 0.24 0.24 0.45 0.50 0.37 0.30 0.27 0.24 0.21 0.24 0.33 0.42 0.54 0.67 0.77 0.84 0.84 0.81 0.82 0.94 0.99 0.96 0.97 0.99 1.10 1.17 1.21 1.24 1.22 1.18 1.19 1.21 1.23
0.00 0.00 0.00 0.00 0.00 0.01 0.02 0.06 0.11 0.22 0.20 0.22 0.32 0.61 0.61 0.38 0.32 0.28 0.25 0.26 0.32 0.46 0.66 0.89 1.07 1.18 1.26 1.17 0.98 0.83 0.83 0.82 0.79 0.83 0.86 0.91 0.96 0.98 0.98 0.99 0.95 1.02 1.04 1.00
0.02 0.01 0.00 0.00 0.00 0.01 0.05 0.10 0.19 0.35 0.40 0.37 0.44 0.66 0.68 0.51 0.41 0.35 0.36 0.46 0.62 0.82 1.09 1.34 1.59 1.70 1.68 1.49 1.22 0.94 0.78 0.74 0.69 0.71 0.74 0.79 0.81 0.79 0.75 0.79 0.75 0.76 0.80 0.81
0.02 0.04 0.01 0.01 0.03 0.05 0.11 0.19 0.27 0.41 0.48 0.58 0.68 0.84 0.74 0.69 0.64 0.61 0.68 0.86 1.07 1.34 1.52 1.66 1.81 1.86 1.60 1.42 1.17 0.92 0.77 0.78 0.78 0.77 0.76 0.75 0.71 0.66 0.62 0.62 0.60 0.57 0.59 0.60
0.03 0.06 0.06 0.03 0.07 0.12 0.24 0.38 0.52 0.74 0.71 0.68 0.85 0.96 0.76 0.71 0.79 0.83 0.94 1.00 1.10 1.25 1.27 1.35 1.41 1.36 1.32 1.27 1.10 0.94 0.85 0.85 0.88 0.88 0.86 0.77 0.67 0.62 0.61 0.59 0.51 0.48 0.45 0.44
0.12 0.19 0.17 0.12 0.23 0.31 0.40 0.44 0.48 0.59 0.67 0.69 0.90 1.02 0.70 0.65 0.70 0.86 1.04 1.09 1.16 1.18 1.10 1.10 1.10 1.11 1.14 1.11 0.99 0.97 0.94 0.94 0.94 0.92 0.82 0.74 0.67 0.57 0.53 0.47 0.43 0.47 0.46 0.48
0.16 0.25 0.27 0.28 0.35 0.42 0.50 0.48 0.41 0.47 0.68 0.74 0.89 0.87 0.71 0.67 0.67 0.79 0.92 1.02 0.97 0.91 0.86 0.87 0.91 0.94 1.03 1.00 0.96 0.91 0.87 0.92 1.01 1.06 0.96 0.85 0.73 0.62 0.56 0.49 0.44 0.42 0.42 0.45
0.07 0.10 0.13 0.13 0.15 0.23 0.43 0.54 0.52 0.48 0.51 0.68 0.71 0.64 0.59 0.54 0.61 0.66 0.69 0.66 0.57 0.54 0.55 0.60 0.64 0.64 0.62 0.59 0.61 0.63 0.69 0.80 0.94 1.08 1.07 0.93 0.74 0.61 0.54 0.49 0.42 0.40 0.39 0.39
0.02 0.02 0.02 0.03 0.06 0.15 0.29 0.40 0.42 0.38 0.36 0.44 0.49 0.49 0.40 0.37 0.43 0.44 0.46 0.42 0.39 0.35 0.33 0.31 0.32 0.33 0.34 0.31 0.28 0.27 0.33 0.48 0.73 0.99 0.97 0.75 0.58 0.46 0.41 0.41 0.39 0.35 0.33 0.36
0.00 0.01 0.02 0.03 0.03 0.10 0.30 0.36 0.34 0.33 0.25 0.25 0.31 0.31 0.27 0.29 0.35 0.35 0.37 0.39 0.29 0.22 0.20 0.20 0.20 0.20 0.20 0.19 0.18 0.19 0.26 0.38 0.54 0.64 0.60 0.51 0.40 0.38 0.41 0.42 0.36 0.34 0.33 0.34
0.00 0.03 0.06 0.06 0.08 0.28 0.57 0.52 0.44 0.40 0.22 0.15 0.15 0.16 0.19 0.28 0.30 0.30 0.29 0.28 0.27 0.17 0.11 0.11 0.12 0.13 0.15 0.16 0.19 0.22 0.27 0.34 0.38 0.40 0.40 0.34 0.30 0.31 0.34 0.35 0.34 0.39 0.44 0.41
0.04 0.11 0.14 0.15 0.19 0.41 0.54 0.49 0.49 0.48 0.33 0.13 0.09 0.10 0.09 0.09 0.10 0.11 0.12 0.10 0.10 0.07 0.04 0.03 0.03 0.03 0.05 0.05 0.06 0.08 0.10 0.12 0.12 0.12 0.13 0.12 0.12 0.13 0.14 0.16 0.22 0.33 0.40 0.42
0.08 0.13 0.19 0.21 0.28 0.42 0.36 0.23 0.25 0.37 0.43 0.12 0.05 0.04 0.02 0.01 0.03 0.05 0.06 0.06 0.02 0.01 0.01 0.00 0.00 0.00 0.00 0.00 0.00 0.00 0.00 0.01 0.01 0.01 0.01 0.01 0.02 0.02 0.03 0.06 0.08 0.15 0.19 0.24
0.05 0.11 0.17 0.24 0.42 0.63 0.45 0.25 0.23 0.39 0.39 0.09 0.03 0.01 0.00 0.00 0.00 0.01 0.04 0.05 0.02 0.00 0.00 0.00 0.00 0.00 0.00 0.00 0.00 0.00 0.00 0.00 0.00 0.00 0.00 0.00 0.00 0.00 0.01 0.02 0.03 0.06 0.08 0.12
0.07 0.11 0.16 0.30 0.59 0.82 0.64 0.41 0.34 0.26 0.11 0.03 0.01 0.00 0.00 0.00 0.00 0.01 0.02 0.03 0.02 0.00 0.00 0.00 0.00 0.00 0.00 0.00 0.00 0.00 0.00 0.00 0.00 0.00 0.00 0.00 0.00 0.00 0.01 0.01 0.02 0.02 0.03 0.06
0.02 0.04 0.08 0.21 0.45 0.52 0.46 0.35 0.24 0.17 0.07 0.01 0.00 0.00 0.00 0.00 0.00 0.00 0.01 0.01 0.01 0.00 0.00 0.00 0.00 0.00 0.00 0.00 0.00 0.00 0.00 0.00 0.00 0.00 0.00 0.00 0.00 0.01 0.01 0.01 0.01 0.02 0.03 0.05
0.00 0.00 0.01 0.03 0.09 0.15 0.18 0.18 0.11 0.08 0.05 0.01 0.00 0.00 0.00 0.00 0.00 0.00 0.01 0.01 0.01 0.00 0.00 0.00 0.00 0.00 0.00 0.00 0.00 0.00 0.00 0.00 0.00 0.00 0.00 0.00 0.01 0.01 0.01 0.02 0.03 0.03 0.04 0.05
0.01 0.01 0.01 0.01 0.01 0.02 0.06 0.08 0.07 0.04 0.02 0.00 0.00 0.00 0.00 0.00 0.00 0.00 0.01 0.01 0.01 0.00 0.00 0.00 0.00 0.00 0.00 0.00 0.00 0.00 0.00 0.00 0.00 0.00 0.00 0.00 0.00 0.01 0.01 0.01 0.01 0.02 0.03 0.04
0.00 0.01 0.01 0.01 0.00 0.01 0.03 0.04 0.03 0.02 0.01 0.00 0.00 0.00 0.00 0.00 0.00 0.00 0.00 0.01 0.00 0.00 0.00 0.00 0.00 0.00 0.00 0.00 0.00 0.00 0.00 0.00 0.00 0.00 0.00 0.00 0.00 0.01 0.01 0.01 0.01 0.01 0.02 0.05

GEFSCGP_prec_meanprecacc_072.txt.gz
Total_Precipitation_Accumulation
0.11 0.22 0.39 0.40 0.43 0.35 0.22 0.17 0.14 0.13 0.15 0.14 0.13 0.15 0.16 0.16 0.15 0.14 0.13 0.11 0.13 0.12 0.11 0.12 0.14 0.18 0.20 0.21 0.27 0.33 0.38 0.53 0.67 0.75 0.87 1.07 1.23 1.39 1.52 1.65 1.54 1.41 1.36 1.50
0.07 0.14 0.16 0.14 0.16 0.17 0.16 0.16 0.15 0.11 0.10 0.09 0.10 0.11 0.12 0.11 0.10 0.10 0.10 0.10 0.09 0.09 0.07 0.06 0.06 0.09 0.10 0.11 0.15 0.22 0.29 0.40 0.52 0.65 0.88 1.10 1.38 1.46 1.52 1.66 1.73 1.66 1.59 1.71
0.05 0.06 0.04 0.05 0.06 0.08 0.11 0.15 0.15 0.12 0.08 0.06 0.06 0.07 0.08 0.09 0.09 0.07 0.07 0.09 0.09 0.07 0.06 0.04 0.04 0.05 0.07 0.07 0.09 0.16 0.26 0.42 0.62 0.84 1.13 1.41 1.65 1.71 1.74 1.67 1.75 1.84 1.89 1.93
0.01 0.00 0.01 0.02 0.05 0.09 0.14 0.09 0.08 0.09 0.09 0.08 0.09 0.12 0.09 0.11 0.13 0.12 0.11 0.12 0.14 0.12 0.08 0.06 0.06 0.07 0.08 0.10 0.15 0.24 0.38 0.58 0.85 1.18 1.51 1.73 1.95 2.03 1.85 1.83 1.87 1.87 1.83 1.86
0.00 0.00 0.00 0.00 0.02 0.04 0.06 0.05 0.06 0.07 0.08 0.06 0.05 0.09 0.10 0.14 0.21 0.22 0.19 0.19 0.20 0.18 0.14 0.12 0.13 0.15 0.19 0.24 0.31 0.46 0.68 0.98 1.25 1.47 1.64 1.85 1.97 1.95 1.91 1.87 1.87 1.80 1.77 1.75
0.00 0.00 0.00 0.00 0.00 0.01 0.02 0.05 0.07 0.08 0.10 0.07 0.05 0.11 0.18 0.21 0.24 0.23 0.21 0.20 0.18 0.17 0.19 0.21 0.23 0.29 0.36 0.40 0.54 0.71 0.89 1.16 1.33 1.44 1.56 1.73 1.86 1.89 1.89 1.86 1.87 1.85 1.81 1.70
0.00 0.00 0.00 0.00 0.00 0.01 0.02 0.06 0.12 0.13 0.17 0.16 0.13 0.24 0.34 0.31 0.26 0.22 0.21 0.21 0.19 0.22 0.27 0.28 0.38 0.52 0.60 0.64 0.72 0.86 0.94 1.10 1.20 1.24 1.33 1.46 1.52 1.56 1.60 1.57 1.53 1.47 1.42 1.39
0.00 0.00 0.00 0.00 0.00 0.01 0.01 0.05 0.17 0.21 0.23 0.24 0.24 0.45 0.50 0.37 0.30 0.27 0.24 0.21 0.24 0.33 0.42 0.54 0.67 0.77 0.84 0.85 0.81 0.82 0.95 0.99 0.97 0.99 1.00 1.12 1.18 1.23 1.27 1.25 1.21 1.22 1.24 1.26
0.00 0.00 0.00 0.00 0.00 0.01 0.02 0.06 0.11 0.22 0.20 0.22 0.32 0.61 0.61 0.38 0.32 0.28 0.25 0.26 0.32 0.46 0.66 0.89 1.07 1.18 1.26 1.17 0.98 0.83 0.83 0.82 0.80 0.84 0.88 0.92 0.99 1.02 1.02 1.04 0.99 1.07 1.08 1.04
0.02 0.01 0.00 0.00 0.00 0.01 0.05 0.10 0.19 0.35 0.40 0.37 0.44 0.66 0.68 0.51 0.41 0.35 0.36 0.46 0.62 0.82 1.09 1.34 1.59 1.70 1.68 1.49 1.22 0.94 0.79 0.74 0.70 0.72 0.76 0.81 0.84 0.85 0.81 0.84 0.79 0.82 0.87 0.87
0.02 0.04 0.01 0.01 0.03 0.05 0.11 0.19 0.27 0.41 0.48 0.58 0.68 0.84 0.74 0.69 0.64 0.61 0.68 0.86 1.07 1.34 1.52 1.66 1.81 1.86 1.60 1.42 1.17 0.92 0.77 0.79 0.78 0.78 0.77 0.77 0.74 0.70 0.69 0.69 0.66 0.64 0.66 0.66
0.03 0.06 0.06 0.03 0.07 0.12 0.24 0.38 0.52 0.74 0.71 0.68 0.85 0.96 0.76 0.71 0.79 0.83 0.94 1.00 1.10 1.25 1.27 1.35 1.41 1.36 1.32 1.27 1.10 0.94 0.85 0.85 0.88 0.88 0.86 0.78 0.69 0.64 0.64 0.62 0.55 0.52 0.48 0.47
0.12 0.19 0.17 0.12 0.23 0.31 0.40 0.44 0.48 0.59 0.67 0.69 0.90 1.02 0.70 0.65 0.70 0.86 1.04 1.09 1.16 1.18 1.10 1.10 1.10 1.11 1.14 1.11 0.99 0.97 0.94 0.94 0.94 0.92 0.82 0.74 0.67 0.58 0.53 0.48 0.44 0.48 0.47 0.51
0.16 0.25 0.27 0.28 0.35 0.42 0.50 0.48 0.41 0.47 0.68 0.74 0.89 0.87 0.71 0.67 0.67 0.79 0.92 1.02 0.97 0.91 0.86 0.87 0.91 0.94 1.03 1.00 0.96 0.91 0.87 0.92 1.01 1.06 0.96 0.85 0.73 0.62 0.56 0.49 0.44 0.42 0.43 0.46
0.07 0.10 0.13 0.13 0.15 0.23 0.43 0.54 0.52 0.48 0.51 0.68 0.71 0.64 0.59 0.54 0.61 0.66 0.69 0.66 0.57 0.54 0.55 0.60 0.64 0.64 0.62 0.59 0.61 0.63 0.69 0.80 0.94 1.08 1.07 0.93 0.74 0.61 0.54 0.49 0.43 0.40 0.40 0.40
0.02 0.02 0.02 0.03 0.06 0.15 0.29 0.40 0.42 0.38 0.36 0.44 0.49 0.49 0.40 0.37 0.43 0.44 0.46 0.42 0.39 0.35 0.33 0.31 0.32 0.33 0.34 0.31 0.28 0.27 0.33 0.48 0.73 0.99 0.97 0.75 0.58 0.46 0.41 0.41 0.39 0.35 0.34 0.37
0.00 0.01 0.02 0.03 0.03 0.10 0.30 0.36 0.34 0.33 0.25 0.25 0.31 0.31 0.27 0.29 0.35 0.35 0.37 0.39 0.29 0.22 0.20 0.20 0.20 0.20 0.20 0.19 0.18 0.19 0.26 0.38 0.54 0.64 0.60 0.51 0.40 0.38 0.41 0.43 0.37 0.34 0.33 0.34
0.00 0.03 0.06 0.06 0.08 0.28 0.57 0.52 0.44 0.40 0.22 0.15 0.15 0.16 0.19 0.28 0.30 0.30 0.29 0.28 0.27 0.17 0.11 0.11 0.12 0.13 0.15 0.16 0.19 0.22 0.27 0.34 0.38 0.40 0.40 0.34 0.30 0.31 0.34 0.35 0.34 0.39 0.44 0.41
0.04 0.11 0.14 0.15 0.19 0.41 0.54 0.49 0.49 0.48 0.33 0.13 0.09 0.10 0.09 0.09 0.10 0.11 0.12 0.10 0.10 0.07 0.04 0.03 0.03 0.03 0.05 0.05 0.06 0.08 0.10 0.12 0.12 0.12 0.13 0.12 0.12 0.13 0.14 0.16 0.22 0.33 0.40 0.42
0.08 0.13 0.19 0.21 0.28 0.42 0.36 0.23 0.25 0.37 0.43 0.12 0.05 0.04 0.02 0.01 0.03 0.05 0.06 0.06 0.02 0.01 0.01 0.00 0.00 0.00 0.00 0.00 0.00 0.00 0.00 0.01 0.01 0.01 0.01 0.01 0.02 0.02 0.03 0.06 0.08 0.15 0.19 0.24
0.05 0.11 0.17 0.24 0.42 0.63 0.45 0.25 0.23 0.39 0.39 0.09 0.03 0.01 0.00 0.00 0.00 0.01 0.04 0.05 0.02 0.00 0.00 0.00 0.00 0.00 0.00 0.00 0.00 0.00 0.00 0.00 0.00 0.00 0.00 0.00 0.00 0.00 0.01 0.02 0.03 0.06 0.08 0.12
0.07 0.11 0.16 0.30 0.59 0.82 0.64 0.41 0.34 0.26 0.11 0.03 0.01 0.00 0.00 0.00 0.00 0.01 0.02 0.03 0.02 0.00 0.00 0.00 0.00 0.00 0.00 0.00 0.00 0.00 0.00 0.00 0.00 0.00 0.00 0.00 0.00 0.00 0.01 0.01 0.02 0.02 0.03 0.06
0.02 0.04 0.08 0.21 0.45 0.52 0.46 0.35 0.24 0.17 0.07 0.01 0.00 0.00 0.00 0.00 0.00 0.00 0.01 0.01 0.01 0.00 0.00 0.00 0.00 0.00 0.00 0.00 0.00 0.00 0.00 0.00 0.00 0.00 0.00 0.00 0.00 0.01 0.01 0.01 0.01 0.02 0.03 0.05
0.00 0.00 0.01 0.03 0.09 0.15 0.18 0.18 0.11 0.08 0.05 0.01 0.00 0.00 0.00 0.00 0.00 0.00 0.01 0.01 0.01 0.00 0.00 0.00 0.00 0.00 0.00 0.00 0.00 0.00 0.00 0.00 0.00 0.00 0.00 0.00 0.01 0.01 0.01 0.02 0.03 0.03 0.04 0.05
0.01 0.01 0.01 0.01 0.01 0.02 0.06 0.08 0.07 0.04 0.02 0.00 0.00 0.00 0.00 0.00 0.00 0.00 0.01 0.01 0.01 0.00 0.00 0.00 0.00 0.00 0.00 0.00 0.00 0.00 0.00 0.00 0.00 0.00 0.00 0.00 0.00 0.01 0.01 0.01 0.01 0.02 0.03 0.04
0.00 0.01 0.01 0.01 0.00 0.01 0.03 0.04 0.03 0.02 0.01 0.00 0.00 0.00 0.00 0.00 0.00 0.00 0.00 0.01 0.00 0.00 0.00 0.00 0.00 0.00 0.00 0.00 0.00 0.00 0.00 0.00 0.00 0.00 0.00 0.00 0.00 0.01 0.01 0.01 0.01 0.01 0.02 0.05

GEFSCGP_prec_meanprecacc_078.txt.gz
Total_Precipitation_Accumulation
0.12 0.22 0.39 0.41 0.43 0.36 0.22 0.17 0.14 0.13 0.15 0.15 0.14 0.15 0.16 0.16 0.15 0.14 0.13 0.11 0.13 0.12 0.11 0.12 0.14 0.18 0.20 0.22 0.27 0.33 0.39 0.53 0.67 0.76 0.88 1.07 1.24 1.40 1.54 1.66 1.55 1.41 1.37 1.52
0.08 0.14 0.17 0.14 0.16 0.17 0.16 0.16 0.15 0.11 0.10 0.09 0.10 0.11 0.12 0.11 0.10 0.10 0.10 0.10 0.09 0.09 0.07 0.06 0.06 0.09 0.10 0.12 0.17 0.22 0.29 0.40 0.53 0.66 0.89 1.11 1.40 1.48 1.55 1.68 1.74 1.67 1.60 1.73
0.06 0.06 0.04 0.05 0.07 0.08 0.11 0.15 0.15 0.12 0.08 0.06 0.06 0.07 0.08 0.09 0.09 0.07 0.07 0.09 0.09 0.07 0.06 0.04 0.04 0.05 0.07 0.08 0.10 0.16 0.27 0.42 0.63 0.85 1.14 1.42 1.67 1.74 1.78 1.69 1.77 1.85 1.89 1.94
0.01 0.01 0.01 0.03 0.05 0.09 0.14 0.09 0.08 0.09 0.09 0.08 0.09 0.12 0.09 0.11 0.13 0.12 0.11 0.12 0.14 0.12 0.08 0.06 0.06 0.07 0.08 0.11 0.15 0.24 0.38 0.60 0.87 1.20 1.52 1.74 1.98 2.07 1.89 1.86 1.89 1.88 1.84 1.87
0.01 0.01 0.01 0.01 0.02 0.04 0.06 0.05 0.06 0.07 0.08 0.06 0.05 0.09 0.10 0.14 0.21 0.22 0.19 0.19 0.20 0.18 0.14 0.12 0.13 0.15 0.19 0.24 0.31 0.46 0.68 0.98 1.27 1.49 1.66 1.86 1.98 1.98 1.93 1.89 1.89 1.81 1.78 1.76
0.00 0.00 0.00 0.00 0.00 0.01 0.02 0.05 0.07 0.08 0.10 0.07 0.05 0.11 0.18 0.21 0.24 0.23 0.21 0.20 0.18 0.17 0.19 0.21 0.23 0.29 0.36 0.40 0.54 0.71 0.89 1.17 1.34 1.45 1.57 1.75 1.87 1.91 1.91 1.87 1.88 1.86 1.82 1.71
0.00 0.00 0.00 0.00 0.00 0.01 0.02 0.06 0.12 0.13 0.17 0.16 0.13 0.24 0.34 0.31 0.26 0.22 0.21 0.21 0.19 0.22 0.27 0.28 0.38 0.52 0.60 0.64 0.72 0.86 0.94 1.11 1.21 1.25 1.35 1.48 1.54 1.59 1.62 1.59 1.55 1.49 1.43 1.41
0.00 0.00 0.00 0.00 0.00 0.01 0.01 0.05 0.17 0.21 0.23 0.24 0.24 0.45 0.50 0.37 0.30 0.27 0.24 0.21 0.24 0.33 0.42 0.54 0.67 0.77 0.84 0.85 0.81 0.82 0.95 1.00 0.97 1.00 1.02 1.13 1.21 1.25 1.30 1.28 1.24 1.24 1.26 1.28
0.00 0.00 0.00 0.00 0.00 0.01 0.02 0.06 0.11 0.22 0.20 0.22 0.32 0.61 0.61 0.38 0.32 0.28 0.25 0.26 0.32 0.46 0.66 0.89 1.07 1.18 1.26 1.17 0.98 0.83 0.84 0.83 0.80 0.84 0.89 0.94 1.03 1.06 1.07 1.08 1.02 1.09 1.11 1.07
0.02 0.01 0.00 0.00 0.00 0.01 0.05 0.10 0.19 0.35 0.40 0.37 0.44 0.66 0.68 0.51 0.41 0.35 0.36 0.46 0.62 0.82 1.09 1.34 1.59 1.70 1.68 1.49 1.22 0.94 0.79 0.74 0.70 0.72 0.77 0.83 0.88 0.89 0.87 0.89 0.83 0.86 0.93 0.92
0.02 0.04 0.01 0.01 0.03 0.05 0.11 0.19 0.27 0.41 0.48 0.58 0.68 0.84 0.74 0.69 0.64 0.61 0.68 0.86 1.07 1.34 1.52 1.66 1.81 1.86 1.60 1.42 1.17 0.92 0.77 0.79 0.78 0.78 0.77 0.77 0.75 0.73 0.72 0.72 0.69 0.69 0.73 0.71
0.03 0.06 0.06 0.03 0.07 0.12 0.24 0.38 0.52 0.74 0.71 0.68 0.85 0.96 0.76 0.71 0.79 0.83 0.94 1.00 1.10 1.25 1.27 1.35 1.41 1.36 1.32 1.27 1.10 0.94 0.85 0.85 0.88 0.88 0.86 0.78 0.69 0.65 0.64 0.63 0.56 0.54 0.50 0.50
0.12 0.19 0.17 0.12 0.23 0.31 0.40 0.44 0.48 0.59 0.67 0.69 0.90 1.02 0.70 0.65 0.70 0.86 1.04 1.09 1.16 1.18 1.10 1.10 1.10 1.11 1.14 1.11 0.99 0.97 0.94 0.94 0.94 0.92 0.82 0.74 0.67 0.58 0.54 0.48 0.44 0.49 0.48 0.52
0.16 0.25 0.27 0.28 0.35 0.42 0.50 0.48 0.41 0.47 0.68 0.74 0.89 0.87 0.71 0.67 0.67 0.79 0.92 1.02 0.97 0.91 0.86 0.87 0.91 0.94 1.03 1.00 0.96 0.91 0.87 0.92 1.01 1.06 0.96 0.85 0.73 0.62 0.56 0.49 0.44 0.42 0.43 0.47
0.07 0.10 0.13 0.13 0.15 0.23 0.43 0.54 0.52 0.48 0.51 0.68 0.71 0.64 0.59 0.54 0.61 0.66 0.69 0.66 0.57 0.54 0.55 0.60 0.64 0.64 0.62 0.59 0.61 0.63 0.69 0.80 0.94 1.08 1.07 0.93 0.74 0.61 0.54 0.49 0.43 0.40 0.40 0.40
0.02 0.02 0.02 0.03 0.06 0.15 0.29 0.40 0.42 0.38 0.36 0.44 0.49 0.49 0.40 0.37 0.43 0.44 0.46 0.42 0.39 0.35 0.33 0.31 0.32 0.33 0.34 0.31 0.28 0.27 0.33 0.48 0.73 0.99 0.97 0.75 0.58 0.46 0.41 0.41 0.39 0.35 0.34 0.38
0.00 0.01 0.02 0.03 0.03 0.10 0.30 0.36 0.34 0.33 0.25 0.25 0.31 0.31 0.27 0.29 0.35 0.35 0.37 0.39 0.29 0.22 0.20 0.20 0.20 0.20 0.20 0.19 0.18 0.19 0.26 0.38 0.54 0.64 0.60 0.51 0.40 0.38 0.41 0.43 0.37 0.34 0.33 0.34
0.00 0.03 0.06 0.06 0.08 0.28 0.57 0.52 0.44 0.40 0.22 0.15 0.15 0.16 0.19 0.28 0.30 0.30 0.29 0.28 0.27 0.17 0.11 0.11 0.12 0.13 0.15 0.16 0.19 0.22 0.27 0.34 0.38 0.40 0.40 0.34 0.30 0.31 0.34 0.35 0.34 0.40 0.44 0.42
0.04 0.11 0.14 0.15 0.19 0.41 0.54 0.49 0.49 0.48 0.33 0.13 0.09 0.10 0.09 0.09 0.10 0.11 0.12 0.10 0.10 0.07 0.04 0.03 0.03 0.03 0.05 0.05 0.06 0.08 0.10 0.12 0.12 0.12 0.13 0.12 0.12 0.13 0.14 0.16 0.22 0.33 0.40 0.42
0.08 0.13 0.19 0.21 0.28 0.42 0.36 0.23 0.25 0.37 0.43 0.12 0.05 0.04 0.02 0.01 0.03 0.05 0.06 0.06 0.02 0.01 0.01 0.00 0.00 0.00 0.00 0.00 0.00 0.00 0.00 0.01 0.01 0.01 0.01 0.01 0.02 0.02 0.04 0.06 0.08 0.15 0.19 0.24
0.05 0.11 0.17 0.24 0.42 0.63 0.45 0.25 0.23 0.39 0.39 0.09 0.03 0.01 0.00 0.00 0.00 0.01 0.04 0.05 0.02 0.00 0.00 0.00 0.00 0.00 0.00 0.00 0.00 0.00 0.00 0.00 0.00 0.00 0.00 0.00 0.00 0.00 0.01 0.02 0.03 0.06 0.08 0.12
0.07 0.11 0.16 0.30 0.59 0.82 0.64 0.41 0.34 0.26 0.11 0.03 0.01 0.00 0.00 0.00 0.00 0.01 0.02 0.03 0.02 0.00 0.00 0.00 0.00 0.00 0.00 0.00 0.00 0.00 0.00 0.00 0.00 0.00 0.00 0.00 0.00 0.00 0.01 0.01 0.02 0.02 0.03 0.06
0.02 0.04 0.08 0.21 0.45 0.52 0.46 0.35 0.24 0.17 0.07 0.01 0.00 0.00 0.00 0.00 0.00 0.00 0.01 0.01 0.01 0.00 0.00 0.00 0.00 0.00 0.00 0.00 0.00 0.00 0.00 0.00 0.00 0.00 0.00 0.00 0.00 0.01 0.01 0.01 0.01 0.02 0.03 0.05
0.00 0.00 0.01 0.03 0.09 0.15 0.18 0.18 0.11 0.08 0.05 0.01 0.00 0.00 0.00 0.00 0.00 0.00 0.01 0.01 0.01 0.00 0.00 0.00 0.00 0.00 0.00 0.00 0.00 0.00 0.00 0.00 0.00 0.00 0.00 0.00 0.01 0.01 0.01 0.02 0.03 0.03 0.04 0.05
0.01 0.01 0.01 0.01 0.01 0.02 0.06 0.08 0.07 0.04 0.02 0.00 0.00 0.00 0.00 0.00 0.00 0.00 0.01 0.01 0.01 0.00 0.00 0.00 0.00 0.00 0.00 0.00 0.00 0.00 0.00 0.00 0.00 0.00 0.00 0.00 0.00 0.01 0.01 0.01 0.01 0.02 0.03 0.04
0.00 0.01 0.01 0.01 0.00 0.01 0.03 0.04 0.03 0.02 0.01 0.00 0.00 0.00 0.00 0.00 0.00 0.00 0.00 0.01 0.00 0.00 0.00 0.00 0.00 0.00 0.00 0.00 0.00 0.00 0.00 0.00 0.00 0.00 0.00 0.00 0.00 0.01 0.01 0.01 0.01 0.01 0.02 0.05

GEFSCGP_prec_meanprecacc_084.txt.gz
Total_Precipitation_Accumulation
0.12 0.22 0.39 0.43 0.48 0.41 0.26 0.19 0.15 0.14 0.16 0.15 0.14 0.15 0.16 0.16 0.15 0.14 0.13 0.11 0.13 0.12 0.11 0.12 0.14 0.18 0.20 0.22 0.27 0.33 0.39 0.54 0.69 0.79 0.91 1.10 1.27 1.44 1.59 1.71 1.60 1.45 1.40 1.54
0.08 0.14 0.18 0.18 0.22 0.24 0.19 0.18 0.16 0.11 0.11 0.09 0.10 0.11 0.12 0.11 0.10 0.10 0.10 0.10 0.09 0.09 0.07 0.06 0.06 0.09 0.10 0.12 0.17 0.23 0.30 0.41 0.55 0.70 0.93 1.15 1.44 1.53 1.60 1.73 1.78 1.71 1.63 1.76
0.06 0.07 0.05 0.06 0.07 0.09 0.11 0.15 0.16 0.13 0.09 0.06 0.06 0.07 0.08 0.09 0.09 0.07 0.07 0.09 0.09 0.07 0.06 0.04 0.04 0.05 0.07 0.08 0.10 0.17 0.28 0.44 0.65 0.87 1.18 1.46 1.71 1.79 1.82 1.74 1.81 1.89 1.94 1.99
0.03 0.03 0.02 0.03 0.05 0.09 0.14 0.09 0.08 0.09 0.09 0.08 0.09 0.12 0.09 0.11 0.13 0.12 0.11 0.12 0.14 0.12 0.08 0.06 0.06 0.07 0.08 0.11 0.15 0.24 0.40 0.61 0.88 1.22 1.56 1.78 2.01 2.11 1.94 1.90 1.93 1.93 1.89 1.91
0.03 0.02 0.01 0.01 0.02 0.04 0.07 0.06 0.06 0.07 0.08 0.06 0.05 0.09 0.10 0.14 0.21 0.22 0.19 0.19 0.20 0.18 0.14 0.12 0.14 0.15 0.19 0.24 0.32 0.47 0.71 1.00 1.27 1.50 1.67 1.88 2.01 2.02 1.98 1.94 1.93 1.87 1.83 1.78
0.02 0.01 0.01 0.01 0.01 0.01 0.02 0.05 0.07 0.08 0.10 0.07 0.05 0.11 0.18 0.21 0.24 0.23 0.21 0.20 0.18 0.17 0.19 0.21 0.23 0.29 0.36 0.40 0.54 0.72 0.90 1.18 1.35 1.46 1.58 1.76 1.90 1.93 1.95 1.92 1.93 1.92 1.88 1.76
0.01 0.01 0.00 0.00 0.00 0.01 0.02 0.06 0.12 0.13 0.17 0.16 0.13 0.24 0.34 0.31 0.26 0.22 0.21 0.21 0.19 0.22 0.27 0.28 0.38 0.52 0.60 0.64 0.72 0.86 0.95 1.11 1.22 1.26 1.36 1.50 1.56 1.61 1.66 1.64 1.60 1.54 1.48 1.47
0.00 0.00 0.00 0.00 0.00 0.01 0.01 0.05 0.17 0.21 0.23 0.24 0.24 0.45 0.50 0.37 0.30 0.27 0.24 0.21 0.24 0.33 0.42 0.54 0.67 0.77 0.84 0.85 0.81 0.83 0.95 1.00 0.98 1.01 1.02 1.14 1.22 1.27 1.33 1.33 1.31 1.32 1.33 1.34
0.00 0.00 0.00 0.00 0.00 0.01 0.02 0.06 0.11 0.22 0.20 0.22 0.32 0.61 0.61 0.38 0.32 0.28 0.25 0.26 0.32 0.46 0.66 0.89 1.07 1.18 1.26 1.17 0.98 0.84 0.84 0.83 0.80 0.85 0.90 0.94 1.04 1.07 1.08 1.11 1.06 1.13 1.15 1.13
0.02 0.01 0.00 0.00 0.00 0.01 0.05 0.10 0.19 0.35 0.40 0.37 0.44 0.66 0.68 0.51 0.41 0.35 0.36 0.46 0.62 0.82 1.09 1.34 1.59 1.70 1.68 1.49 1.22 0.94 0.79 0.74 0.70 0.73 0.78 0.84 0.89 0.90 0.88 0.90 0.84 0.88 0.95 0.95
0.03 0.04 0.01 0.01 0.03 0.05 0.11 0.19 0.27 0.41 0.48 0.58 0.68 0.84 0.74 0.69 0.64 0.61 0.68 0.86 1.07 1.34 1.52 1.66 1.81 1.86 1.60 1.42 1.17 0.92 0.77 0.79 0.78 0.78 0.77 0.78 0.75 0.74 0.73 0.73 0.70 0.70 0.74 0.73
0.03 0.06 0.06 0.03 0.07 0.12 0.24 0.38 0.52 0.74 0.71 0.68 0.85 0.96 0.76 0.71 0.79 0.83 0.94 1.00 1.10 1.25 1.27 1.35 1.41 1.36 1.32 1.27 1.10 0.94 0.85 0.85 0.88 0.88 0.86 0.78 0.69 0.66 0.66 0.64 0.57 0.56 0.53 0.51
0.12 0.19 0.17 0.12 0.23 0.31 0.40 0.44 0.48 0.59 0.67 0.69 0.90 1.02 0.70 0.65 0.70 0.86 1.04 1.09 1.16 1.18 1.10 1.10 1.10 1.11 1.14 1.11 0.99 0.97 0.94 0.94 0.94 0.92 0.82 0.74 0.68 0.59 0.54 0.49 0.45 0.50 0.50 0.55
0.16 0.25 0.27 0.28 0.35 0.42 0.50 0.48 0.41 0.47 0.68 0.74 0.89 0.87 0.71 0.67 0.67 0.79 0.92 1.02 0.97 0.91 0.86 0.87 0.91 0.94 1.03 1.00 0.96 0.91 0.87 0.92 1.01 1.06 0.96 0.85 0.73 0.62 0.56 0.49 0.45 0.43 0.44 0.50
0.07 0.10 0.13 0.13 0.15 0.23 0.43 0.54 0.52 0.48 0.51 0.68 0.71 0.64 0.59 0.54 0.61 0.66 0.69 0.66 0.57 0.54 0.55 0.60 0.64 0.64 0.62 0.59 0.61 0.63 0.69 0.80 0.94 1.08 1.07 0.93 0.74 0.61 0.54 0.50 0.43 0.40 0.41 0.42
0.02 0.02 0.02 0.03 0.06 0.15 0.29 0.40 0.42 0.38 0.36 0.44 0.49 0.49 0.40 0.37 0.43 0.44 0.46 0.42 0.39 0.35 0.33 0.31 0.32 0.33 0.34 0.31 0.28 0.27 0.33 0.48 0.73 0.99 0.97 0.75 0.58 0.46 0.41 0.41 0.39 0.35 0.34 0.39
0.00 0.01 0.02 0.03 0.03 0.10 0.30 0.36 0.34 0.33 0.25 0.25 0.31 0.31 0.27 0.29 0.35 0.35 0.37 0.39 0.29 0.22 0.20 0.20 0.20 0.20 0.20 0.19 0.18 0.19 0.26 0.38 0.54 0.64 0.60 0.51 0.40 0.38 0.41 0.43 0.37 0.34 0.34 0.35
0.00 0.03 0.06 0.06 0.08 0.28 0.57 0.52 0.44 0.40 0.22 0.15 0.15 0.16 0.19 0.28 0.30 0.30 0.29 0.28 0.27 0.17 0.11 0.11 0.12 0.13 0.15 0.16 0.19 0.22 0.27 0.34 0.38 0.40 0.40 0.34 0.30 0.31 0.34 0.35 0.34 0.40 0.44 0.42
0.04 0.11 0.14 0.15 0.19 0.41 0.54 0.49 0.49 0.48 0.33 0.13 0.09 0.10 0.09 0.09 0.10 0.11 0.12 0.10 0.10 0.07 0.04 0.03 0.03 0.03 0.05 0.05 0.06 0.08 0.10 0.12 0.12 0.12 0.13 0.12 0.12 0.13 0.14 0.16 0.22 0.33 0.40 0.42
0.08 0.13 0.19 0.21 0.28 0.42 0.36 0.23 0.25 0.37 0.43 0.12 0.05 0.04 0.02 0.01 0.03 0.05 0.06 0.06 0.02 0.01 0.01 0.00 0.00 0.00 0.00 0.00 0.00 0.00 0.00 0.01 0.01 0.01 0.01 0.01 0.02 0.02 0.04 0.06 0.09 0.15 0.19 0.24
0.05 0.11 0.17 0.24 0.42 0.63 0.45 0.25 0.23 0.39 0.39 0.09 0.03 0.01 0.00 0.00 0.00 0.01 0.04 0.05 0.02 0.00 0.00 0.00 0.00 0.00 0.00 0.00 0.00 0.00 0.00 0.00 0.00 0.00 0.00 0.00 0.00 0.00 0.01 0.02 0.03 0.06 0.08 0.12
0.07 0.11 0.16 0.30 0.59 0.82 0.64 0.41 0.34 0.26 0.11 0.03 0.01 0.00 0.00 0.00 0.00 0.01 0.02 0.03 0.02 0.00 0.00 0.00 0.00 0.00 0.00 0.00 0.00 0.00 0.00 0.00 0.00 0.00 0.00 0.00 0.00 0.00 0.01 0.01 0.02 0.02 0.03 0.06
0.02 0.04 0.08 0.21 0.45 0.52 0.46 0.35 0.24 0.17 0.07 0.01 0.00 0.00 0.00 0.00 0.00 0.00 0.01 0.01 0.01 0.00 0.00 0.00 0.00 0.00 0.00 0.00 0.00 0.00 0.00 0.00 0.00 0.00 0.00 0.00 0.00 0.01 0.01 0.01 0.01 0.02 0.03 0.05
0.00 0.00 0.01 0.03 0.09 0.15 0.18 0.18 0.11 0.08 0.05 0.01 0.00 0.00 0.00 0.00 0.00 0.00 0.01 0.01 0.01 0.00 0.00 0.00 0.00 0.00 0.00 0.00 0.00 0.00 0.00 0.00 0.00 0.00 0.00 0.00 0.01 0.01 0.01 0.02 0.03 0.03 0.04 0.05
0.01 0.01 0.01 0.01 0.01 0.02 0.06 0.08 0.07 0.04 0.02 0.00 0.00 0.00 0.00 0.00 0.00 0.00 0.01 0.01 0.01 0.00 0.00 0.00 0.00 0.00 0.00 0.00 0.00 0.00 0.00 0.00 0.00 0.00 0.00 0.00 0.00 0.01 0.01 0.01 0.01 0.02 0.03 0.04
0.00 0.01 0.01 0.01 0.00 0.01 0.03 0.04 0.03 0.02 0.01 0.00 0.00 0.00 0.00 0.00 0.00 0.00 0.00 0.01 0.00 0.00 0.00 0.00 0.00 0.00 0.00 0.00 0.00 0.00 0.00 0.00 0.00 0.00 0.00 0.00 0.00 0.01 0.01 0.01 0.01 0.01 0.02 0.05

GEFSCGP_prec_meanprecacc_090.txt.gz
Total_Precipitation_Accumulation
0.14 0.26 0.44 0.51 0.59 0.53 0.35 0.24 0.19 0.18 0.19 0.19 0.17 0.17 0.18 0.18 0.17 0.15 0.13 0.11 0.13 0.12 0.11 0.12 0.14 0.18 0.20 0.22 0.27 0.33 0.39 0.55 0.69 0.79 0.91 1.10 1.27 1.44 1.59 1.72 1.61 1.46 1.41 1.55
0.12 0.18 0.23 0.25 0.31 0.33 0.27 0.22 0.18 0.13 0.12 0.10 0.10 0.11 0.12 0.12 0.11 0.11 0.10 0.10 0.09 0.09 0.07 0.06 0.06 0.09 0.10 0.12 0.17 0.23 0.30 0.41 0.55 0.70 0.93 1.15 1.44 1.53 1.61 1.74 1.78 1.72 1.65 1.78
0.13 0.12 0.09 0.11 0.14 0.16 0.16 0.18 0.19 0.14 0.09 0.06 0.06 0.07 0.08 0.10 0.09 0.07 0.07 0.09 0.09 0.07 0.06 0.04 0.04 0.05 0.07 0.08 0.10 0.17 0.28 0.44 0.65 0.87 1.18 1.46 1.71 1.79 1.83 1.75 1.82 1.90 1.95 2.01
0.14 0.11 0.07 0.08 0.10 0.14 0.16 0.10 0.09 0.09 0.09 0.08 0.09 0.12 0.09 0.11 0.13 0.12 0.11 0.12 0.14 0.12 0.08 0.06 0.06 0.07 0.08 0.11 0.15 0.24 0.40 0.61 0.88 1.22 1.56 1.79 2.01 2.11 1.94 1.91 1.94 1.94 1.90 1.92
0.11 0.08 0.07 0.06 0.05 0.07 0.07 0.06 0.07 0.08 0.08 0.06 0.05 0.09 0.10 0.14 0.21 0.22 0.19 0.19 0.20 0.18 0.14 0.12 0.14 0.15 0.19 0.24 0.32 0.47 0.71 1.00 1.28 1.50 1.68 1.89 2.01 2.02 1.99 1.95 1.95 1.88 1.84 1.80
0.08 0.05 0.04 0.03 0.02 0.02 0.03 0.05 0.07 0.08 0.10 0.07 0.05 0.11 0.18 0.22 0.24 0.23 0.21 0.20 0.18 0.17 0.19 0.21 0.23 0.29 0.36 0.40 0.54 0.72 0.90 1.18 1.35 1.46 1.58 1.77 1.91 1.95 1.96 1.94 1.94 1.94 1.89 1.78
0.06 0.03 0.02 0.01 0.01 0.02 0.02 0.06 0.12 0.13 0.17 0.16 0.13 0.24 0.34 0.31 0.26 0.22 0.21 0.21 0.19 0.22 0.27 0.28 0.38 0.52 0.60 0.64 0.72 0.86 0.95 1.11 1.22 1.27 1.36 1.50 1.57 1.63 1.68 1.67 1.62 1.57 1.51 1.49
0.03 0.01 0.00 0.00 0.00 0.01 0.01 0.05 0.17 0.21 0.23 0.24 0.24 0.45 0.50 0.37 0.30 0.27 0.24 0.21 0.24 0.33 0.42 0.54 0.67 0.77 0.84 0.85 0.81 0.83 0.95 1.00 0.98 1.01 1.02 1.14 1.22 1.29 1.35 1.36 1.34 1.36 1.38 1.38
0.02 0.01 0.00 0.00 0.00 0.01 0.02 0.06 0.11 0.22 0.20 0.22 0.32 0.61 0.61 0.38 0.32 0.28 0.25 0.26 0.32 0.46 0.66 0.89 1.07 1.18 1.26 1.17 0.98 0.84 0.84 0.83 0.80 0.86 0.90 0.95 1.04 1.08 1.10 1.14 1.09 1.17 1.20 1.18
0.04 0.02 0.00 0.00 0.00 0.01 0.05 0.10 0.19 0.35 0.40 0.37 0.44 0.66 0.68 0.51 0.41 0.35 0.36 0.46 0.62 0.82 1.09 1.34 1.59 1.70 1.68 1.49 1.22 0.94 0.79 0.74 0.70 0.73 0.78 0.85 0.89 0.90 0.89 0.92 0.86 0.91 0.99 0.99
0.03 0.04 0.02 0.01 0.03 0.05 0.11 0.19 0.27 0.41 0.48 0.58 0.68 0.84 0.74 0.69 0.64 0.61 0.68 0.86 1.07 1.34 1.52 1.66 1.81 1.86 1.60 1.42 1.17 0.92 0.77 0.79 0.78 0.78 0.78 0.78 0.76 0.74 0.74 0.74 0.71 0.72 0.76 0.74
0.04 0.06 0.06 0.03 0.07 0.12 0.24 0.38 0.52 0.74 0.71 0.68 0.85 0.96 0.76 0.71 0.79 0.83 0.94 1.00 1.10 1.25 1.27 1.35 1.41 1.36 1.32 1.27 1.10 0.94 0.85 0.85 0.88 0.88 0.86 0.78 0.70 0.67 0.67 0.64 0.57 0.56 0.53 0.52
0.12 0.19 0.17 0.12 0.23 0.31 0.40 0.44 0.48 0.59 0.67 0.69 0.90 1.02 0.70 0.65 0.70 0.86 1.04 1.09 1.16 1.18 1.10 1.10 1.10 1.11 1.14 1.11 0.99 0.97 0.94 0.94 0.94 0.92 0.82 0.74 0.68 0.59 0.55 0.49 0.45 0.50 0.51 0.55
0.16 0.25 0.27 0.28 0.35 0.42 0.50 0.48 0.41 0.47 0.68 0.74 0.89 0.87 0.71 0.67 0.67 0.79 0.92 1.02 0.97 0.91 0.86 0.87 0.91 0.94 1.03 1.00 0.96 0.91 0.87 0.92 1.01 1.06 0.96 0.85 0.73 0.62 0.56 0.49 0.45 0.43 0.45 0.51
0.07 0.10 0.13 0.13 0.15 0.23 0.43 0.54 0.52 0.48 0.51 0.68 0.71 0.64 0.59 0.54 0.61 0.66 0.69 0.66 0.57 0.54 0.55 0.60 0.64 0.64 0.62 0.59 0.61 0.63 0.69 0.80 0.94 1.08 1.07 0.93 0.74 0.61 0.54 0.50 0.43 0.40 0.41 0.42
0.02 0.02 0.02 0.03 0.06 0.15 0.29 0.40 0.42 0.38 0.36 0.44 0.49 0.49 0.40 0.37 0.43 0.44 0.46 0.42 0.39 0.35 0.33 0.31 0.32 0.33 0.34 0.31 0.28 0.27 0.33 0.48 0.73 0.99 0.97 0.75 0.58 0.46 0.41 0.41 0.39 0.35 0.34 0.39
0.00 0.01 0.02 0.03 0.03 0.10 0.30 0.36 0.34 0.33 0.25 0.25 0.31 0.31 0.27 0.29 0.35 0.35 0.37 0.39 0.29 0.22 0.20 0.20 0.20 0.20 0.20 0.19 0.18 0.19 0.26 0.38 0.54 0.64 0.60 0.51 0.40 0.38 0.41 0.43 0.37 0.34 0.34 0.35
0.00 0.03 0.06 0.06 0.08 0.28 0.57 0.52 0.44 0.40 0.22 0.15 0.15 0.16 0.19 0.28 0.30 0.30 0.29 0.28 0.27 0.17 0.11 0.11 0.12 0.13 0.15 0.16 0.19 0.22 0.27 0.34 0.38 0.40 0.40 0.34 0.30 0.31 0.34 0.35 0.34 0.40 0.44 0.42
0.04 0.11 0.14 0.15 0.19 0.41 0.54 0.49 0.49 0.48 0.33 0.13 0.09 0.10 0.09 0.09 0.10 0.11 0.12 0.10 0.10 0.07 0.04 0.03 0.03 0.03 0.05 0.05 0.06 0.08 0.10 0.12 0.12 0.12 0.13 0.12 0.12 0.13 0.14 0.16 0.22 0.33 0.40 0.42
0.08 0.13 0.19 0.21 0.28 0.42 0.36 0.23 0.25 0.37 0.43 0.12 0.05 0.04 0.02 0.01 0.03 0.05 0.06 0.06 0.02 0.01 0.01 0.00 0.00 0.00 0.00 0.00 0.00 0.00 0.00 0.01 0.01 0.01 0.01 0.01 0.02 0.02 0.04 0.06 0.09 0.15 0.19 0.24
0.05 0.11 0.17 0.24 0.42 0.63 0.45 0.25 0.23 0.39 0.39 0.09 0.03 0.01 0.00 0.00 0.00 0.01 0.04 0.05 0.02 0.00 0.00 0.00 0.00 0.00 0.00 0.00 0.00 0.00 0.00 0.00 0.00 0.00 0.00 0.00 0.00 0.00 0.01 0.02 0.03 0.06 0.08 0.12
0.07 0.11 0.16 0.30 0.59 0.82 0.64 0.41 0.34 0.26 0.11 0.03 0.01 0.00 0.00 0.00 0.00 0.01 0.02 0.03 0.02 0.00 0.00 0.00 0.00 0.00 0.00 0.00 0.00 0.00 0.00 0.00 0.00 0.00 0.00 0.00 0.00 0.00 0.01 0.01 0.02 0.02 0.03 0.06
0.02 0.04 0.08 0.21 0.45 0.52 0.46 0.35 0.24 0.17 0.07 0.01 0.00 0.00 0.00 0.00 0.00 0.00 0.01 0.01 0.01 0.00 0.00 0.00 0.00 0.00 0.00 0.00 0.00 0.00 0.00 0.00 0.00 0.00 0.00 0.00 0.00 0.01 0.01 0.01 0.01 0.02 0.03 0.05
0.00 0.00 0.01 0.03 0.09 0.15 0.18 0.18 0.11 0.08 0.05 0.01 0.00 0.00 0.00 0.00 0.00 0.00 0.01 0.01 0.01 0.00 0.00 0.00 0.00 0.00 0.00 0.00 0.00 0.00 0.00 0.00 0.00 0.00 0.00 0.00 0.01 0.01 0.01 0.02 0.03 0.03 0.04 0.05
0.01 0.01 0.01 0.01 0.01 0.02 0.06 0.08 0.07 0.04 0.02 0.00 0.00 0.00 0.00 0.00 0.00 0.00 0.01 0.01 0.01 0.00 0.00 0.00 0.00 0.00 0.00 0.00 0.00 0.00 0.00 0.00 0.00 0.00 0.00 0.00 0.00 0.01 0.01 0.01 0.01 0.02 0.03 0.04
0.00 0.01 0.01 0.01 0.00 0.01 0.03 0.04 0.03 0.02 0.01 0.00 0.00 0.00 0.00 0.00 0.00 0.00 0.00 0.01 0.00 0.00 0.00 0.00 0.00 0.00 0.00 0.00 0.00 0.00 0.00 0.00 0.00 0.00 0.00 0.00 0.00 0.01 0.01 0.01 0.01 0.01 0.02 0.05

GEFSCGP_prec_meanprecacc_096.txt.gz
Total_Precipitation_Accumulation
0.17 0.29 0.47 0.54 0.62 0.58 0.38 0.26 0.20 0.18 0.20 0.19 0.17 0.17 0.18 0.18 0.18 0.16 0.13 0.12 0.13 0.12 0.11 0.12 0.14 0.18 0.20 0.22 0.27 0.33 0.39 0.55 0.69 0.79 0.91 1.10 1.27 1.45 1.60 1.72 1.62 1.46 1.42 1.57
0.15 0.20 0.25 0.28 0.36 0.38 0.30 0.24 0.19 0.13 0.12 0.10 0.10 0.11 0.13 0.13 0.12 0.11 0.11 0.10 0.09 0.09 0.07 0.06 0.06 0.09 0.10 0.12 0.17 0.23 0.30 0.41 0.55 0.70 0.93 1.15 1.44 1.53 1.62 1.75 1.79 1.73 1.66 1.78
0.15 0.13 0.12 0.15 0.18 0.20 0.18 0.19 0.19 0.15 0.09 0.07 0.06 0.07 0.08 0.10 0.09 0.08 0.07 0.09 0.09 0.07 0.06 0.04 0.04 0.05 0.07 0.08 0.10 0.17 0.28 0.44 0.65 0.87 1.18 1.46 1.71 1.79 1.83 1.76 1.83 1.91 1.96 2.01
0.17 0.13 0.10 0.11 0.13 0.16 0.18 0.11 0.09 0.10 0.09 0.08 0.09 0.12 0.09 0.11 0.13 0.12 0.11 0.12 0.14 0.12 0.08 0.06 0.06 0.07 0.08 0.11 0.15 0.24 0.40 0.61 0.88 1.22 1.56 1.79 2.02 2.11 1.95 1.91 1.95 1.96 1.90 1.93
0.13 0.10 0.09 0.07 0.07 0.09 0.10 0.07 0.07 0.08 0.09 0.06 0.05 0.09 0.10 0.14 0.21 0.22 0.19 0.19 0.20 0.18 0.14 0.12 0.14 0.15 0.19 0.24 0.32 0.47 0.71 1.00 1.28 1.50 1.68 1.89 2.02 2.03 2.00 1.96 1.96 1.89 1.85 1.80
0.12 0.08 0.07 0.05 0.04 0.05 0.05 0.06 0.08 0.08 0.10 0.07 0.05 0.11 0.18 0.22 0.24 0.23 0.21 0.20 0.18 0.17 0.19 0.21 0.23 0.29 0.36 0.40 0.54 0.72 0.90 1.18 1.35 1.46 1.59 1.78 1.92 1.96 1.97 1.95 1.96 1.95 1.91 1.79
0.09 0.07 0.04 0.03 0.03 0.04 0.04 0.07 0.12 0.13 0.17 0.16 0.13 0.24 0.34 0.31 0.26 0.22 0.21 0.21 0.19 0.22 0.27 0.28 0.38 0.52 0.60 0.64 0.72 0.86 0.95 1.11 1.22 1.27 1.36 1.51 1.58 1.64 1.70 1.68 1.64 1.58 1.52 1.49
0.05 0.03 0.02 0.01 0.01 0.01 0.02 0.05 0.17 0.21 0.23 0.24 0.24 0.45 0.50 0.37 0.30 0.27 0.24 0.21 0.24 0.33 0.42 0.54 0.67 0.77 0.84 0.85 0.81 0.83 0.95 1.00 0.98 1.01 1.02 1.14 1.23 1.29 1.37 1.37 1.35 1.37 1.39 1.39
0.03 0.01 0.01 0.01 0.00 0.01 0.02 0.06 0.11 0.22 0.20 0.22 0.32 0.61 0.61 0.38 0.32 0.28 0.25 0.26 0.32 0.46 0.66 0.89 1.07 1.18 1.26 1.17 0.98 0.84 0.84 0.83 0.80 0.86 0.90 0.95 1.05 1.09 1.11 1.15 1.10 1.18 1.22 1.20
0.05 0.02 0.01 0.01 0.01 0.01 0.05 0.10 0.19 0.35 0.40 0.37 0.44 0.66 0.68 0.51 0.41 0.35 0.36 0.46 0.62 0.82 1.09 1.34 1.59 1.70 1.68 1.49 1.22 0.94 0.79 0.74 0.70 0.73 0.78 0.85 0.89 0.90 0.89 0.92 0.87 0.93 1.01 1.01
0.04 0.05 0.02 0.01 0.03 0.05 0.11 0.19 0.27 0.41 0.48 0.58 0.68 0.84 0.74 0.69 0.64 0.61 0.68 0.86 1.07 1.34 1.52 1.66 1.81 1.86 1.60 1.42 1.17 0.92 0.77 0.79 0.78 0.78 0.78 0.78 0.76 0.74 0.74 0.74 0.71 0.72 0.77 0.76
0.04 0.06 0.06 0.03 0.07 0.12 0.24 0.38 0.52 0.74 0.71 0.68 0.85 0.96 0.76 0.71 0.79 0.83 0.94 1.00 1.10 1.25 1.27 1.35 1.41 1.36 1.32 1.27 1.10 0.94 0.85 0.85 0.88 0.88 0.86 0.78 0.70 0.67 0.67 0.64 0.57 0.56 0.53 0.52
0.12 0.19 0.17 0.12 0.23 0.31 0.40 0.44 0.48 0.59 0.67 0.69 0.90 1.02 0.70 0.65 0.70 0.86 1.04 1.09 1.16 1.18 1.10 1.10 1.10 1.11 1.14 1.11 0.99 0.97 0.94 0.94 0.94 0.92 0.82 0.74 0.68 0.59 0.55 0.49 0.45 0.50 0.51 0.55
0.16 0.25 0.27 0.28 0.35 0.42 0.50 0.48 0.41 0.47 0.68 0.74 0.89 0.87 0.71 0.67 0.67 0.79 0.92 1.02 0.97 0.91 0.86 0.87 0.91 0.94 1.03 1.00 0.96 0.91 0.87 0.92 1.01 1.06 0.96 0.85 0.73 0.62 0.56 0.49 0.45 0.43 0.45 0.51
0.07 0.10 0.13 0.13 0.15 0.23 0.43 0.54 0.52 0.48 0.51 0.68 0.71 0.64 0.59 0.54 0.61 0.66 0.69 0.66 0.57 0.54 0.55 0.60 0.64 0.64 0.62 0.59 0.61 0.63 0.69 0.80 0.94 1.08 1.07 0.93 0.74 0.61 0.54 0.50 0.43 0.40 0.41 0.42
0.02 0.02 0.02 0.03 0.06 0.15 0.29 0.40 0.42 0.38 0.36 0.44 0.49 0.49 0.40 0.37 0.43 0.44 0.46 0.42 0.39 0.35 0.33 0.31 0.32 0.33 0.34 0.31 0.28 0.27 0.33 0.48 0.73 0.99 0.97 0.75 0.58 0.46 0.41 0.41 0.39 0.35 0.34 0.39
0.00 0.01 0.02 0.03 0.03 0.10 0.30 0.36 0.34 0.33 0.25 0.25 0.31 0.31 0.27 0.29 0.35 0.35 0.37 0.39 0.29 0.22 0.20 0.20 0.20 0.20 0.20 0.19 0.18 0.19 0.26 0.38 0.54 0.64 0.60 0.51 0.40 0.38 0.41 0.43 0.37 0.34 0.34 0.35
0.00 0.03 0.06 0.06 0.08 0.28 0.57 0.52 0.44 0.40 0.22 0.15 0.15 0.16 0.19 0.28 0.30 0.30 0.29 0.28 0.27 0.17 0.11 0.11 0.12 0.13 0.15 0.16 0.19 0.22 0.27 0.34 0.38 0.40 0.40 0.34 0.30 0.31 0.34 0.35 0.34 0.40 0.44 0.42
0.04 0.11 0.14 0.15 0.19 0.41 0.54 0.49 0.49 0.48 0.33 0.13 0.09 0.10 0.09 0.09 0.10 0.11 0.12 0.10 0.10 0.07 0.04 0.03 0.03 0.03 0.05 0.05 0.06 0.08 0.10 0.12 0.12 0.12 0.13 0.12 0.12 0.13 0.14 0.16 0.22 0.33 0.40 0.42
0.08 0.13 0.19 0.21 0.28 0.42 0.36 0.23 0.25 0.37 0.43 0.12 0.05 0.04 0.02 0.01 0.03 0.05 0.06 0.06 0.02 0.01 0.01 0.00 0.00 0.00 0.00 0.00 0.00 0.00 0.00 0.01 0.01 0.01 0.01 0.01 0.02 0.02 0.04 0.06 0.09 0.15 0.19 0.24
0.05 0.11 0.17 0.24 0.42 0.63 0.45 0.25 0.23 0.39 0.39 0.09 0.03 0.01 0.00 0.00 0.00 0.01 0.04 0.05 0.02 0.00 0.00 0.00 0.00 0.00 0.00 0.00 0.00 0.00 0.00 0.00 0.00 0.00 0.00 0.00 0.00 0.00 0.01 0.02 0.03 0.06 0.08 0.12
0.07 0.11 0.16 0.30 0.59 0.82 0.64 0.41 0.34 0.26 0.11 0.03 0.01 0.00 0.00 0.00 0.00 0.01 0.02 0.03 0.02 0.00 0.00 0.00 0.00 0.00 0.00 0.00 0.00 0.00 0.00 0.00 0.00 0.00 0.00 0.00 0.00 0.00 0.01 0.01 0.02 0.02 0.03 0.06
0.02 0.04 0.08 0.21 0.45 0.52 0.46 0.35 0.24 0.17 0.07 0.01 0.00 0.00 0.00 0.00 0.00 0.00 0.01 0.01 0.01 0.00 0.00 0.00 0.00 0.00 0.00 0.00 0.00 0.00 0.00 0.00 0.00 0.00 0.00 0.00 0.00 0.01 0.01 0.01 0.01 0.02 0.03 0.05
0.00 0.00 0.01 0.03 0.09 0.15 0.18 0.18 0.11 0.08 0.05 0.01 0.00 0.00 0.00 0.00 0.00 0.00 0.01 0.01 0.01 0.00 0.00 0.00 0.00 0.00 0.00 0.00 0.00 0.00 0.00 0.00 0.00 0.00 0.00 0.00 0.01 0.01 0.01 0.02 0.03 0.03 0.04 0.05
0.01 0.01 0.01 0.01 0.01 0.02 0.06 0.08 0.07 0.04 0.02 0.00 0.00 0.00 0.00 0.00 0.00 0.00 0.01 0.01 0.01 0.00 0.00 0.00 0.00 0.00 0.00 0.00 0.00 0.00 0.00 0.00 0.00 0.00 0.00 0.00 0.00 0.01 0.01 0.01 0.01 0.02 0.03 0.04
0.00 0.01 0.01 0.01 0.00 0.01 0.03 0.04 0.03 0.02 0.01 0.00 0.00 0.00 0.00 0.00 0.00 0.00 0.00 0.01 0.00 0.00 0.00 0.00 0.00 0.00 0.00 0.00 0.00 0.00 0.00 0.00 0.00 0.00 0.00 0.00 0.00 0.01 0.01 0.01 0.01 0.01 0.02 0.05